Regional Weather Roundup
Issued by NWS Columbia, SC

Home | Current Version | Previous Version | Text Only | Print | Product List | Glossary On
Versions: 1 2 3 4 5 6 7 8 9 10 11 12 13 14 15 16 17 18 19 20 21 22 23 24 25 26 27 28 29 30 31 32 33 34 35 36 37 38 39 40 41 42 43 44 45 46 47 48 49 50
000
ASUS42 KCAE 260410
RWRCAE
REGIONAL WEATHER ROUNDUP
NATIONAL WEATHER SERVICE COLUMBIA SC
1200 AM EDT SUN MAR 26 2017

NOTE: "FAIR" INDICATES FEW OR NO CLOUDS BELOW 12,000 FEET WITH NO
SIGNIFICANT WEATHER AND/OR OBSTRUCTIONS TO VISIBILITY.

NOT ALL STATIONS ARE QUALITY CONTROLLED BY THE NATIONAL
WEATHER SERVICE. USE DATA WITH CAUTION...ESPECIALLY
DEWPOINT OBSERVATIONS.

SCZ001>056-GAZ040-063>065-077-260500-
...UPSTATE SOUTH CAROLINA...

CITY           SKY/WX    TMP DP  RH WIND       PRES   REMARKS
ANDERSON       CLEAR     64  51  62 SE9       30.16R
LIBERTY        CLOUDY    63  50  63 SE8       30.16S
SPARTANBURG    PTCLDY    63  48  59 SE6       30.18S
CLEMSON        MOCLDY    66  50  56 SE6       30.17S
GREENVILLE     CLEAR     65  50  58 SE10      30.18S
GREENWOOD      CLEAR     61  51  70 SE8       30.19S
GREER          CLEAR     62  50  64 SE16G23   30.16F
ROCK HILL      CLEAR     63  52  67 S9        30.21S
CHESTER        CLEAR     59  50  72 S5        30.22S
LAURENS        CLEAR     63  52  67 S10       30.18F


...CENTRAL SOUTH CAROLINA...

CITY           SKY/WX    TMP DP  RH WIND       PRES   REMARKS
COLUMBIA APT   PTCLDY    63  52  67 E3        30.21S
COLUMBIA OWENS MOCLDY    63  53  70 CALM      30.22F
MCENTIRE ANGB  MOCLDY    59  55  88 E5        30.22F
ORANGEBURG     PTCLDY    60  53  77 E6        30.22F
SUMTER SHAW    PTCLDY    60  54  79 SE3       30.21S
NEWBERRY       PTCLDY    63  52  67 SE8       30.22F
AIKEN          FAIR      59  52  77 SE7       30.23F
BARNWELL       FAIR      61  55  82 CALM      30.21F
MANNING        FAIR      54  52  94 CALM      30.24S
CAMDEN         MOCLDY    61  54  77 CALM      30.23S
LANCASTER      CLEAR     63  55  77 SE7       30.22F
WINNSBORO      CLEAR     61  54  77 SE6       30.21F


...EASTERN AND COASTAL SOUTH CAROLINA...

CITY           SKY/WX    TMP DP  RH WIND       PRES   REMARKS
MYRTLE BEACH   MOCLDY    59  55  87 CALM      30.26F
N MYRTLE BCH   MOCLDY    64  57  78 SE3       30.25S
CONWAY         FAIR      52  50  93 CALM      30.25F
MARION         FAIR      61  54  77 S6        30.24F
HARTSVILLE     FAIR      59  52  77 S3        30.23S
FLORENCE       MOCLDY    60  55  83 S6        30.24S
DARLINGTON     PTCLDY    59  54  83 CALM      30.24S
CHARLESTON APT PTCLDY    58  55  90 CALM      30.23S
MOUNT PLEASANT MOCLDY    61  59  94 CALM      30.24S
WALTERBORO     CLEAR     55  54  94 E6        30.23F
BEAUFORT       CLEAR     61  60  97 CALM      30.21F


...EASTERN GEORGIA...

CITY           SKY/WX    TMP DP  RH WIND       PRES   REMARKS
AUGUSTA BUSH F PTCLDY    64  54  69 SE8       30.18F
AUGUSTA DANIEL CLEAR     65  52  62 SE6       30.18F
THOMSON        CLEAR     64  53  67 SW8       30.22S
WASHINGTON     FAIR      64  55  72 SE9       30.17R
CLAXTON        FAIR     N/A N/A N/A CALM      30.19F
SYLVANIA       CLOUDY   N/A N/A N/A SE3       30.21F
STATESBORO     CLOUDY    62  57  82 CALM      30.20F
SAVANNAH       CLEAR     62  55  77 E6        30.21S


...SOUTHERN NORTH CAROLINA...

CITY           SKY/WX    TMP DP  RH WIND       PRES   REMARKS
CHARLOTTE      PTCLDY    63  50  62 S16       30.21S
MONROE         PTCLDY    62  51  67 VRB7      30.21S
WADESBORO      PTCLDY    63  52  67 S5        30.22S
ROCKINGHAM     PTCLDY    62  54  76 S6        30.23F
RUTHERFORDTON  CLOUDY    61  49  65 CALM      30.19S
ASHEVILLE      CLEAR     56  46  69 S6        30.19F

$$



USA.gov is the U.S. government's official web portal to all federal, state and local government web resources and services.